Date,TemperatureHighF,TemperatureAvgF,TemperatureLowF,DewpointHighF,DewpointAvgF,DewpointLowF,HumidityHigh,HumidityAvg,HumidityLow,PressureMaxIn,PressureMinIn,WindSpeedMaxMPH,WindSpeedAvgMPH,GustSpeedMaxMPH,PrecipitationSumIn
2012-1-1,46,37,30,44,35,30,98,93,74,0.00,0.00,21,2,21,0.00
2012-1-2,47,41,31,46,30,14,97,68,39,0.00,0.00,32,10,32,0.00
2012-1-3,32,21,9,14,3,-9,56,45,39,0.00,0.00,18,4,18,0.00
2012-1-4,22,14,6,2,-6,-12,45,41,33,0.00,0.00,16,3,16,0.00
2012-1-5,31,24,17,11,5,0,55,45,41,0.00,0.00,15,3,15,0.00
2012-1-6,31,24,18,30,15,1,94,71,44,0.00,0.00,8,1,8,0.00
2012-1-7,37,29,23,34,27,21,92,90,87,0.00,0.00,8,0,8,0.00
2012-1-8,39,32,25,30,18,7,94,62,40,0.00,0.00,19,2,19,0.00
2012-1-9,32,23,14,14,8,2,73,54,38,0.00,0.00,21,2,21,0.00
2012-1-10,39,32,22,27,19,8,76,58,42,0.00,0.00,21,6,21,0.00
2012-1-11,28,22,14,8,1,-3,54,40,32,0.00,0.00,16,2,16,0.00
2012-1-12,33,27,22,32,19,1,98,75,39,0.00,0.00,26,2,26,0.00
2012-1-13,45,30,21,44,25,14,98,83,50,0.00,0.00,52,8,52,0.00
2012-1-14,30,20,3,18,4,-14,62,49,42,0.00,0.00,29,6,29,0.00
2012-1-15,12,3,-4,-6,-14,-21,44,44,44,0.00,0.00,16,2,16,0.00
2012-1-16,32,14,-2,18,-3,-19,55,46,38,0.00,0.00,40,4,40,0.00
2012-1-17,40,32,28,39,27,16,98,81,52,0.00,0.00,31,3,31,0.00
2012-1-18,42,29,10,42,15,-8,98,59,38,0.00,0.00,35,9,35,0.00
2012-1-19,23,10,3,16,-8,-15,74,44,37,0.00,0.00,16,1,16,0.00
2012-1-20,32,21,8,31,12,-7,95,70,46,0.00,0.00,20,3,20,0.00
2012-1-21,15,9,2,4,-5,-10,61,53,48,0.00,0.00,8,0,8,0.00
2012-1-22,25,10,-5,6,-3,-15,67,54,42,0.00,0.00,12,0,12,0.00
2012-1-23,44,27,14,44,21,5,98,75,64,0.00,0.00,29,1,29,0.00
2012-1-24,50,44,37,49,43,36,98,98,96,0.00,0.00,22,4,22,0.00
2012-1-25,38,33,28,36,18,12,96,54,41,0.00,0.00,24,4,24,0.00
2012-1-26,35,30,24,14,10,7,52,43,34,0.00,0.00,11,1,11,0.00
2012-1-27,39,34,30,38,31,12,98,91,45,0.00,0.00,23,4,23,0.00
2012-1-28,40,35,31,34,28,21,98,79,47,0.00,0.00,18,2,18,0.00
2012-1-29,39,34,26,26,15,9,68,47,36,0.00,0.00,28,9,28,0.00
2012-1-30,33,27,16,20,8,-2,70,46,34,0.00,0.00,25,3,25,0.00
2012-1-31,26,22,16,21,12,0,86,65,46,0.00,0.00,12,2,12,0.00
2012-2-1,30,26,23,28,24,20,92,89,86,0.00,0.00,7,0,7,0.00
2012-2-2,30,25,19,24,16,8,92,69,47,0.00,0.00,12,0,12,0.00
2012-2-3,32,22,13,11,6,2,63,51,37,0.00,0.00,14,2,14,0.00
2012-2-4,33,25,19,18,12,8,77,59,38,0.00,0.00,17,2,17,0.00
2012-2-5,31,25,20,7,5,2,52,42,35,0.00,0.00,13,2,13,0.00
2012-2-6,45,32,20,22,14,6,59,49,38,0.00,0.00,21,6,21,0.00
2012-2-7,41,33,18,23,14,-3,70,47,35,0.00,40.00,17,4,17,0.00
2012-2-8,35,22,9,13,4,-7,58,45,40,0.00,40.00,17,3,17,0.00
2012-2-9,42,29,20,16,11,8,63,49,33,0.00,0.00,12,1,12,0.00
2012-2-10,46,32,18,30,18,9,81,60,33,0.00,0.00,23,2,23,0.00
2012-2-11,36,31,19,30,21,3,87,66,49,0.00,0.00,17,2,17,0.00
2012-2-12,20,12,4,3,-7,-16,49,41,36,0.00,0.00,22,6,22,0.00
2012-2-13,30,18,4,7,-2,-16,54,41,37,0.00,0.00,26,6,26,0.00
2012-2-14,41,28,16,19,12,4,68,53,39,0.00,0.00,24,2,24,0.00
2012-2-15,43,34,28,26,22,18,77,61,41,0.00,0.00,10,0,10,0.00
2012-2-16,48,37,31,33,27,22,86,67,39,0.00,0.00,14,1,14,0.00
2012-2-17,42,38,35,41,36,26,96,92,71,0.00,0.00,17,2,17,0.00
2012-2-18,42,35,28,26,18,10,73,50,36,0.00,0.00,26,6,26,0.00
2012-2-19,40,31,24,14,11,7,52,43,33,0.00,0.00,28,4,28,0.00
2012-2-20,36,27,18,10,7,4,61,44,32,0.00,0.00,17,2,17,0.00
2012-2-21,37,28,15,28,12,3,79,52,35,0.00,0.00,30,3,30,0.00
2012-2-22,47,38,32,42,32,25,95,81,53,0.00,0.00,21,2,21,0.00
2012-2-23,45,40,32,44,33,18,96,78,48,0.00,0.00,22,3,22,0.00
2012-2-24,42,34,28,35,24,17,98,68,43,0.00,0.00,17,3,17,0.00
2012-2-25,39,33,28,36,24,10,98,72,45,0.00,0.00,33,9,33,0.00
2012-2-26,34,26,20,10,5,0,47,39,32,0.00,0.00,31,8,31,0.00
2012-2-27,34,26,15,31,12,-1,90,57,37,0.00,0.00,17,2,17,0.00
2012-2-28,36,30,20,29,16,6,91,60,38,0.00,0.00,17,2,17,0.00
2012-2-29,38,27,17,19,12,6,74,54,33,0.00,0.00,20,2,20,0.00
2012-3-1,30,22,18,18,16,11,83,77,46,0.00,0.00,21,5,21,0.00
2012-3-2,33,23,9,22,13,4,81,68,48,0.00,0.00,12,1,12,0.00
2012-3-3,41,35,28,40,33,22,98,93,77,0.00,0.00,17,3,17,0.00
2012-3-4,42,33,26,34,26,17,98,76,44,0.00,0.00,12,2,12,0.00
2012-3-5,31,25,14,26,11,-3,85,57,36,0.00,0.00,15,2,15,0.00
2012-3-6,34,21,10,8,1,-7,51,40,31,0.00,0.00,17,2,17,0.00
2012-3-7,48,36,17,33,20,1,69,51,40,0.00,0.00,26,6,26,0.00
2012-3-8,59,51,41,43,36,26,69,55,45,0.00,0.00,38,13,38,0.00
2012-3-9,53,37,25,43,20,8,86,53,33,0.00,0.00,35,5,35,0.00
2012-3-10,38,30,22,14,11,7,63,47,32,0.00,0.00,15,2,15,0.00
2012-3-11,49,37,24,27,21,14,77,54,35,0.00,40.00,25,5,25,0.00
2012-3-12,64,44,30,42,28,24,92,60,28,0.00,0.00,12,1,12,0.00
2012-3-13,59,47,39,42,34,26,83,62,42,0.00,0.00,11,2,11,0.00
2012-3-14,34,33,32,33,31,30,96,95,94,0.00,0.00,6,0,6,0.00
2012-3-15,37,32,29,31,24,20,96,74,53,0.00,0.00,15,1,15,0.00
2012-3-16,34,31,28,30,26,22,85,81,75,0.00,0.00,7,0,7,0.00
2012-3-17,58,48,36,42,31,24,98,54,34,0.00,0.00,16,2,16,0.00
2012-3-18,72,52,37,46,38,31,92,64,32,0.00,0.00,21,5,21,0.00
2012-3-19,68,52,40,46,37,30,88,60,33,0.00,0.00,17,4,17,0.00
2012-3-20,75,53,37,43,38,31,86,60,32,0.00,0.00,16,2,16,0.00
2012-3-21,83,62,44,55,45,39,93,59,29,0.00,0.00,19,4,19,0.00
2012-3-22,86,66,47,56,45,41,94,55,22,0.00,0.00,17,3,17,0.00
2012-3-23,69,58,46,44,26,13,55,32,15,0.00,0.00,17,3,17,0.00
2012-3-24,55,44,35,28,16,8,61,32,20,0.00,0.00,17,3,17,0.00
2012-3-25,44,40,38,38,35,28,95,82,61,0.00,0.00,16,1,16,0.00
2012-3-26,41,35,26,38,22,5,97,63,35,0.00,0.00,23,4,23,0.00
2012-3-27,43,31,21,11,4,0,40,32,23,0.00,0.00,21,6,21,0.00
2012-3-28,39,34,29,37,24,5,98,70,32,0.00,0.00,13,2,13,0.00
2012-3-29,36,34,32,36,33,28,98,96,86,0.00,0.00,13,1,13,0.00
2012-3-30,45,35,28,28,18,10,86,51,32,0.00,0.00,22,5,22,0.00
2012-3-31,50,35,24,22,16,11,73,49,28,0.00,0.00,17,1,17,0.00
2012-4-1,53,38,23,31,21,16,85,54,28,0.00,0.00,21,3,21,0.00
2012-4-2,52,41,34,37,24,7,89,54,27,0.00,0.00,17,1,17,0.00
2012-4-3,54,42,31,21,14,5,44,32,27,0.00,0.00,16,3,16,0.00
2012-4-4,58,45,36,27,20,16,52,38,25,0.00,0.00,30,5,30,0.00
2012-4-5,50,40,32,24,20,13,66,46,33,0.00,0.00,24,5,24,0.00
2012-4-6,52,40,30,22,16,11,54,39,27,0.00,0.00,19,4,19,0.00
2012-4-7,50,39,31,21,16,11,48,40,31,0.00,0.00,17,2,17,0.00
2012-4-8,45,38,34,35,24,18,86,57,40,0.00,0.00,24,5,24,0.00
2012-4-9,52,46,38,43,36,28,95,70,52,0.00,0.00,30,6,30,0.00
2012-4-10,58,48,39,34,30,24,74,52,35,0.00,0.00,33,5,33,0.00
2012-4-11,60,46,33,39,31,29,92,60,35,0.00,0.00,17,2,17,0.00
2012-4-12,57,46,38,41,32,28,77,59,36,0.00,0.00,17,2,17,0.00
2012-4-13,58,48,40,29,25,22,62,43,28,0.00,0.00,22,7,22,0.00
2012-4-14,70,53,38,30,26,21,68,39,22,0.00,0.00,22,6,22,0.00
2012-4-15,74,57,44,44,36,29,87,50,24,0.00,0.00,22,3,22,0.00
2012-4-16,77,58,45,52,46,42,95,69,41,0.00,0.00,29,3,29,0.00
2012-4-17,87,64,50,58,44,27,98,58,18,0.00,0.00,22,2,22,0.00
2012-4-18,62,50,39,30,26,20,66,40,28,0.00,0.00,19,3,19,0.00
2012-4-19,63,48,33,38,32,27,93,59,31,0.00,0.00,26,4,26,0.00
2012-4-20,70,54,39,56,40,34,96,63,35,0.00,0.00,21,4,21,0.00
2012-4-21,58,52,49,55,47,39,95,83,67,0.00,0.00,12,2,12,0.00
2012-4-22,51,44,38,50,42,36,98,93,70,0.00,0.00,16,2,16,0.00
2012-4-23,58,49,38,57,48,37,98,98,98,0.00,0.00,29,7,29,0.00
2012-4-24,56,49,43,53,40,31,98,76,41,0.00,0.00,25,6,25,0.00
2012-4-25,63,50,41,42,34,26,83,57,30,0.00,0.00,29,5,29,0.00
2012-4-26,60,48,36,41,32,28,79,57,34,0.00,0.00,17,4,17,0.00
2012-4-27,52,46,36,48,35,17,96,69,38,0.00,0.00,35,6,35,0.00
2012-4-28,53,41,32,21,16,11,48,36,27,0.00,0.00,26,7,26,0.00
2012-4-29,55,43,32,20,15,10,49,33,23,0.00,0.00,26,6,26,0.00
2012-4-30,61,45,32,32,22,13,72,41,26,0.00,0.00,25,3,25,0.00
2012-5-1,47,43,40,41,38,32,98,84,61,0.00,0.00,22,2,22,0.00
2012-5-2,48,44,41,48,43,41,98,95,82,0.00,0.00,10,0,10,0.00
2012-5-3,55,48,43,46,41,36,97,79,51,0.00,0.00,12,2,12,0.00
2012-5-4,49,47,46,48,45,42,98,95,85,0.00,0.00,12,0,12,0.00
2012-5-5,62,52,44,56,46,40,98,83,47,0.00,0.00,12,1,12,0.00
2012-5-6,66,50,38,44,34,26,97,61,25,0.00,0.00,15,2,15,0.00
2012-5-7,70,52,36,42,29,22,91,49,22,0.00,0.00,22,3,22,0.00
2012-5-8,53,46,38,47,41,29,97,84,59,0.00,0.00,21,3,21,0.00
2012-5-9,60,53,48,60,53,47,98,97,95,0.00,0.00,12,1,12,0.00
2012-5-10,63,55,49,60,49,40,98,83,49,0.00,0.00,22,2,22,0.00
2012-5-11,61,52,43,50,39,32,96,65,37,0.00,0.00,22,3,22,0.00
2012-5-12,72,51,44,37,34,26,71,54,21,0.00,0.00,23,6,23,0.00
2012-5-13,76,58,44,52,43,35,88,59,33,0.00,0.00,12,1,12,0.00
2012-5-14,65,54,48,52,48,43,95,79,56,0.00,0.00,8,1,8,0.00
2012-5-15,71,59,50,64,51,44,97,78,43,0.00,0.00,25,3,25,0.00
2012-5-16,64,57,55,63,56,53,98,96,90,0.00,0.00,12,1,12,0.00
2012-5-17,68,59,46,59,42,28,98,59,26,0.00,0.00,26,3,26,0.00
2012-5-18,72,56,40,46,35,28,88,50,27,0.00,0.00,25,4,25,0.00
2012-5-19,76,60,44,50,40,36,91,53,28,0.00,0.00,12,2,12,0.00
2012-5-20,80,64,48,53,43,33,89,53,31,0.00,0.00,17,2,17,0.00
2012-5-21,73,61,49,53,44,38,86,56,29,0.00,0.00,17,2,17,0.00
2012-5-22,70,62,57,67,58,53,97,89,65,0.00,0.00,11,0,11,0.00
2012-5-23,74,66,61,66,62,55,97,86,53,0.00,0.00,14,0,14,0.00
2012-5-24,69,60,55,60,54,50,96,81,55,0.00,0.00,15,2,15,0.00
2012-5-25,61,57,55,60,56,54,98,96,84,0.00,0.00,17,2,17,0.00
2012-5-26,81,68,59,74,57,40,98,74,32,0.00,0.00,14,1,14,0.00
2012-5-27,76,62,54,48,41,33,76,49,26,0.00,0.00,12,1,12,0.00
2012-5-28,74,62,54,56,48,44,91,63,36,0.00,0.00,13,1,13,0.00
2012-5-29,58,55,53,57,54,49,98,94,72,0.00,0.00,13,1,13,0.00
2012-5-30,74,62,53,69,57,53,98,86,54,0.00,0.00,12,0,12,0.00
2012-5-31,78,64,55,67,57,49,97,80,39,0.00,0.00,11,0,11,0.00
2012-6-1,74,60,48,52,42,36,86,54,31,0.00,0.00,14,1,14,0.00
2012-6-2,62,55,51,52,49,42,98,81,52,0.00,0.00,17,3,17,0.00
2012-6-3,54,52,50,53,52,49,98,98,98,0.00,0.00,15,2,15,0.00
2012-6-4,55,51,49,54,50,48,98,98,98,0.00,0.00,14,0,14,0.00
2012-6-5,55,52,50,52,50,48,96,92,82,0.00,0.00,7,0,7,0.00
2012-6-6,66,55,47,55,48,41,98,80,44,0.00,0.00,12,0,12,0.00
2012-6-7,64,54,47,56,49,45,98,84,52,0.00,0.00,11,1,11,0.00
2012-6-8,63,55,48,60,52,45,98,91,70,29.53,0.00,12,1,12,0.00
2012-6-9,77,64,54,63,48,36,98,63,28,29.56,29.38,15,2,15,0.00
2012-6-10,79,62,48,50,46,40,89,58,31,29.91,29.56,16,1,16,0.00
2012-6-11,72,60,50,62,50,45,97,72,44,29.97,29.83,14,2,14,0.00
2012-6-12,69,62,54,56,53,50,89,74,53,29.83,29.62,16,3,16,0.00
2012-6-13,62,60,59,61,58,54,98,94,84,29.74,29.59,10,0,10,0.00
2012-6-14,75,65,54,60,48,38,98,62,29,29.91,29.74,12,1,12,0.00
2012-6-15,71,64,58,49,47,42,69,55,36,30.00,29.94,6,0,6,0.00
2012-6-16,70,58,49,52,48,44,92,70,45,30.03,29.94,11,1,11,0.00
2012-6-17,70,57,44,60,45,40,96,69,38,29.94,29.83,13,2,13,0.00
2012-6-18,69,57,49,52,48,44,92,72,43,29.83,29.80,12,1,12,0.00
2012-6-19,74,63,54,59,54,50,91,75,46,29.80,29.65,16,2,16,0.00
2012-6-20,94,76,58,72,60,56,97,64,31,29.65,29.47,12,1,12,0.00
2012-6-21,87,75,63,66,57,47,88,58,33,29.50,29.41,11,1,11,0.00
2012-6-22,84,69,61,64,58,53,89,69,43,29.47,29.35,8,1,8,0.00
2012-6-23,74,65,61,69,62,59,98,91,71,29.53,29.41,12,0,12,0.00
2012-6-24,84,70,61,69,56,46,98,66,32,29.53,29.50,15,1,15,0.00
2012-6-25,74,65,61,63,59,52,98,83,57,29.50,29.35,15,1,15,0.00
2012-6-26,72,63,60,68,60,55,98,89,61,29.35,29.15,13,2,13,0.00
2012-6-27,71,64,58,66,58,54,97,82,59,29.29,29.09,17,3,17,0.00
2012-6-28,78,67,58,64,58,51,94,74,42,29.38,29.26,12,1,12,0.00
2012-6-29,83,68,58,71,61,57,97,81,44,29.35,29.18,12,1,12,0.00
2012-6-30,90,75,62,72,60,55,97,65,33,29.32,29.21,12,2,12,0.00
2012-7-1,88,73,63,71,61,52,95,71,29,29.47,29.32,11,1,11,0.00
2012-7-2,80,69,61,68,61,53,98,80,41,29.50,29.44,12,1,12,0.00
2012-7-3,82,70,60,63,55,47,96,65,31,29.53,29.44,15,1,15,0.00
2012-7-4,80,68,60,69,63,56,96,86,58,29.50,29.32,12,0,12,0.00
2012-7-5,81,71,66,71,65,60,98,81,50,29.44,29.29,10,0,10,0.00
2012-7-6,82,74,68,65,63,61,87,69,53,29.53,29.44,11,1,11,0.00
2012-7-7,89,76,68,70,60,51,88,62,30,29.44,29.32,17,3,17,0.00
2012-7-8,82,71,61,60,50,40,85,51,30,29.50,29.38,20,2,20,0.00
2012-7-9,81,67,55,56,46,39,90,51,27,29.62,29.50,19,2,19,0.00
2012-7-10,84,68,52,52,47,41,85,51,26,29.74,29.59,17,2,17,0.00
2012-7-11,87,70,54,62,52,45,94,59,28,29.83,29.74,12,1,12,0.00
2012-7-12,86,71,59,72,58,50,95,66,40,29.83,29.77,15,2,15,0.00
2012-7-13,90,74,59,71,58,52,96,63,28,29.83,29.74,12,1,12,0.00
2012-7-14,90,75,61,71,64,57,94,71,36,29.77,29.71,12,1,12,0.00
2012-7-15,85,73,66,75,65,60,96,79,50,29.74,29.53,12,1,12,0.00
2012-7-16,87,73,66,74,65,59,98,78,39,29.53,29.38,10,0,10,0.00
2012-7-17,78,71,65,74,68,64,98,93,75,29.44,29.26,20,1,20,0.00
2012-7-18,85,75,65,68,61,46,93,64,36,29.56,29.26,14,1,14,0.00
2012-7-19,76,66,56,53,47,42,81,53,34,29.68,29.53,12,1,12,0.00
2012-7-20,78,65,53,56,48,43,92,58,32,29.74,29.68,11,1,11,0.00
2012-7-21,80,67,54,68,53,46,95,65,35,29.74,29.68,12,1,12,0.00
2012-7-22,81,70,60,61,57,52,91,66,41,29.74,29.71,17,4,17,0.00
2012-7-23,81,71,63,66,62,58,92,75,50,29.71,29.38,16,3,16,0.00
2012-7-24,81,70,61,72,66,58,95,87,57,29.38,29.18,15,2,15,0.00
2012-7-25,79,67,58,58,52,45,92,62,33,29.41,29.29,14,1,14,0.00
2012-7-26,70,65,60,61,58,50,92,78,59,29.41,29.29,0,0,0,0.00
2012-7-28,79,73,66,72,63,60,97,72,55,29.68,0.00,10,0,10,0.00
2012-7-29,72,67,63,69,63,60,96,88,69,29.71,29.62,10,0,10,0.00
2012-7-30,84,69,60,70,60,54,98,76,41,29.74,29.68,14,2,14,0.00
2012-7-31,79,69,63,68,60,49,95,75,39,29.77,29.62,15,2,15,0.00
2012-8-1,82,69,64,68,63,57,97,83,45,29.62,29.50,12,1,12,0.00
2012-8-2,77,70,67,70,67,64,97,90,73,29.56,29.47,11,0,11,0.00
2012-8-3,89,74,67,74,66,59,97,78,42,29.71,29.50,17,1,17,0.00
2012-8-4,88,73,64,71,61,56,96,71,37,29.88,29.71,11,1,11,0.00
2012-8-5,80,73,66,73,69,62,97,86,71,29.85,29.53,21,3,21,0.00
2012-8-6,84,74,62,72,59,49,94,64,32,29.62,29.50,16,1,16,0.00
2012-8-7,82,67,57,61,54,49,92,65,36,29.65,29.56,12,1,12,0.00
2012-8-8,86,70,60,71,59,52,97,71,33,29.62,29.59,12,1,12,0.00
2012-8-9,83,70,63,74,65,62,98,85,51,29.62,29.56,15,1,15,0.00
2012-8-10,70,68,65,70,67,65,98,98,95,29.62,29.56,11,0,11,0.00
2012-8-11,77,70,66,73,67,65,98,92,67,29.59,29.47,8,0,8,0.00
2012-8-12,73,70,68,72,69,66,98,97,95,29.59,29.50,6,0,6,0.00
2012-8-13,85,73,67,72,67,59,98,84,43,29.56,29.50,11,1,11,0.00
2012-8-14,85,72,65,70,63,54,97,75,39,29.56,29.50,12,0,12,0.00
2012-8-15,81,71,64,72,62,52,96,77,42,29.56,29.47,16,1,16,0.00
2012-8-16,69,67,62,67,66,61,98,97,93,29.53,29.38,11,0,11,0.00
2012-8-17,82,69,60,71,60,53,98,77,44,29.44,29.41,12,1,12,0.00
2012-8-18,74,68,63,70,62,59,96,79,67,29.53,29.47,0,0,0,0.00
2012-8-19,78,67,59,62,56,46,95,70,34,29.59,29.53,10,0,10,0.00
2012-8-20,78,66,58,66,56,50,95,72,40,29.53,29.50,8,0,8,0.00
2012-8-21,79,66,59,65,57,51,97,76,40,29.71,29.50,12,0,12,0.00
2012-8-22,79,67,56,66,55,47,97,71,33,29.80,29.68,10,1,10,0.00
2012-8-23,84,69,58,71,58,51,98,72,33,29.74,29.71,12,1,12,0.00
2012-8-24,72,63,61,65,60,51,95,89,48,29.85,29.74,6,0,6,0.00
2012-8-25,80,68,59,68,58,50,97,76,37,30.00,29.85,11,1,11,0.00
2012-8-26,80,68,59,66,58,52,97,74,40,29.94,29.83,12,2,12,0.00
2012-8-27,81,69,60,69,59,44,97,75,35,29.83,29.53,16,2,16,0.00
2012-8-28,81,71,68,74,66,54,97,86,45,29.53,29.32,21,1,21,0.24
2012-8-29,73,72,72,46,44,42,38,36,35,29.50,29.50,11,4,11,0.00
2012-8-31,73,68,63,66,61,56,95,79,63,29.50,29.41,12,1,12,0.12
2012-9-1,75,65,54,65,53,41,98,70,32,29.77,29.47,12,0,12,0.00
2012-9-2,64,57,52,63,55,50,97,92,73,29.83,29.74,10,0,10,0.16
2012-9-3,72,61,52,64,55,51,98,83,54,29.85,29.80,12,1,12,0.08
2012-9-4,71,62,56,63,58,55,98,87,59,29.80,29.56,16,2,16,0.08
2012-9-5,71,65,61,70,63,58,98,92,73,29.56,29.29,19,1,19,1.06
2012-9-6,72,64,57,64,59,56,98,85,60,29.56,29.50,11,0,11,0.00
2012-9-7,82,69,62,72,62,53,98,82,40,29.59,29.50,10,0,10,0.00
2012-9-8,76,69,62,71,67,60,98,92,70,29.56,29.29,21,4,21,0.16
2012-9-9,70,63,54,69,58,50,98,85,58,29.50,29.29,12,0,12,0.04
2012-9-10,67,57,50,56,47,39,97,71,44,29.62,29.47,10,1,10,0.00
2012-9-11,68,57,48,50,44,37,86,64,34,29.88,29.62,12,1,12,0.00
2012-9-12,74,59,47,60,48,42,97,71,34,29.97,29.85,12,1,12,0.00
2012-9-13,79,63,52,66,55,50,98,80,44,29.97,29.88,12,1,12,0.00
2012-9-14,76,63,55,70,59,55,98,88,50,29.88,29.71,12,1,12,0.04
2012-9-15,72,63,51,63,53,38,97,73,37,29.71,29.56,17,1,17,0.00
2012-9-16,63,54,47,44,37,31,81,56,32,29.65,29.59,19,2,19,0.00
2012-9-17,69,54,39,53,42,37,95,70,34,29.74,29.65,13,1,13,0.00
2012-9-18,70,60,50,64,54,49,98,84,50,29.71,29.44,29,3,29,0.08
2012-9-19,68,62,46,67,52,36,98,74,35,29.85,29.35,29,3,29,0.83
2012-9-20,63,50,40,45,38,31,92,67,33,29.91,29.80,8,0,8,0.00
2012-9-21,59,51,42,53,47,40,97,87,71,29.83,29.71,4,0,4,0.08
2012-9-22,69,60,53,68,59,52,98,97,92,29.71,29.50,10,0,10,0.16
2012-9-23,69,61,47,63,50,37,98,72,36,29.68,29.44,17,1,17,0.04
2012-9-24,62,51,44,50,43,35,94,78,37,29.74,29.68,16,0,16,0.12
2012-9-25,66,54,42,55,45,36,98,75,35,29.77,29.71,21,3,21,0.00
2012-9-26,64,60,53,60,57,51,96,88,76,29.77,29.59,15,2,15,0.00
2012-9-27,62,55,44,59,43,32,98,66,36,29.88,29.59,12,1,12,0.00
2012-9-28,58,49,40,50,44,37,98,85,59,29.88,29.74,8,0,8,0.28
2012-9-29,56,52,49,56,52,49,98,98,98,29.77,29.53,12,0,12,0.16
2012-9-30,60,56,54,59,56,53,98,98,98,29.56,29.26,16,1,16,0.87
2012-10-1,64,56,51,55,51,46,98,86,55,29.50,29.26,16,2,16,0.00
2012-10-2,71,60,52,60,53,48,97,80,45,29.71,29.50,16,2,16,0.04
2012-10-3,68,61,58,62,58,50,98,90,56,29.83,29.68,7,0,7,0.08
2012-10-4,60,59,57,60,58,56,98,97,93,29.83,29.71,4,0,4,0.24
2012-10-5,64,60,57,61,57,56,98,92,79,29.62,29.56,12,2,12,0.00
2012-10-6,69,61,49,64,57,47,98,88,63,29.56,29.32,20,2,20,0.31
2012-10-7,58,50,45,47,39,32,92,66,39,29.68,29.50,12,1,12,0.00
2012-10-8,56,46,40,46,42,32,96,87,42,29.97,29.65,12,1,12,0.24
2012-10-9,56,46,40,43,38,34,98,77,49,29.97,29.80,12,1,12,0.00
2012-10-10,59,51,40,59,48,36,98,90,74,29.80,29.26,21,2,21,0.79
2012-10-11,56,48,40,55,34,25,98,60,33,29.71,29.26,25,4,25,0.00
2012-10-12,52,45,35,45,30,19,92,59,35,29.88,29.53,17,2,17,0.16
2012-10-13,50,39,31,29,22,18,72,53,31,30.00,29.88,21,4,21,0.00
2012-10-14,52,46,38,51,42,27,98,86,59,29.91,29.56,14,1,14,0.08
2012-10-15,66,60,50,61,56,50,98,88,69,29.56,29.23,22,5,22,0.31
2012-10-16,61,54,38,61,50,30,98,88,53,29.44,29.15,15,2,15,0.31
2012-10-17,58,44,34,39,33,28,92,68,34,29.62,29.44,11,1,11,0.28
2012-10-18,61,48,38,54,39,32,98,75,34,29.80,29.62,15,2,15,0.00
2012-10-19,64,56,47,62,51,44,98,86,52,29.80,29.47,29,5,29,0.39
2012-10-20,66,62,54,65,61,53,98,98,98,29.47,29.26,20,2,20,0.55
2012-10-21,62,54,47,56,44,34,98,73,37,29.41,29.29,16,2,16,0.08
2012-10-22,60,52,41,37,34,30,74,51,37,29.56,29.38,26,5,26,0.00
2012-10-23,58,45,35,43,31,24,95,62,33,29.74,29.53,14,2,14,0.00
2012-10-24,60,44,33,37,28,21,88,57,26,29.83,29.71,12,1,12,0.00
2012-10-25,58,42,32,34,28,22,82,61,31,29.94,29.83,12,1,12,0.00
2012-10-26,64,49,36,51,42,32,95,79,46,29.88,29.77,12,1,12,0.00
2012-10-27,67,52,44,59,45,38,98,80,45,29.77,29.68,11,1,11,0.00
2012-10-28,52,48,44,48,44,40,94,86,70,29.71,29.53,12,1,12,0.00
2012-10-29,59,56,51,57,54,48,98,93,76,29.53,29.21,35,10,35,0.28
2012-10-30,64,61,58,62,60,57,98,98,95,29.35,29.21,31,9,31,1.34
2012-10-31,63,58,50,62,54,46,98,87,67,29.26,29.18,22,2,22,0.04
2012-11-1,57,49,42,48,41,36,91,75,45,29.21,29.12,12,2,12,0.00
2012-11-2,56,48,41,46,38,33,97,73,44,29.21,29.12,12,1,12,0.00
2012-11-3,54,44,39,40,34,27,87,70,41,29.32,29.20,15,1,15,0.00
2012-11-4,52,44,37,32,28,21,68,53,37,29.53,29.32,21,3,21,0.00
2012-11-5,39,34,27,21,16,9,63,49,40,29.68,29.53,12,1,12,0.00
2012-11-6,40,30,23,17,13,9,69,50,33,29.88,29.68,16,2,16,0.00
2012-11-7,36,31,23,26,15,12,80,52,40,29.88,29.53,17,4,17,0.00
2012-11-8,37,35,32,36,33,26,97,94,81,29.53,29.32,17,4,17,0.79
2012-11-9,49,39,32,35,28,19,98,67,41,29.65,29.32,17,4,17,0.04
2012-11-10,49,37,28,33,21,11,87,55,29,30.09,29.62,17,2,17,0.00
2012-11-11,52,42,28,47,32,17,97,69,49,30.12,30.03,18,2,18,0.00
2012-11-12,62,52,40,56,47,38,98,84,41,30.06,29.88,27,6,27,0.00
2012-11-13,61,51,36,60,46,21,98,84,52,30.03,29.74,26,4,26,0.20
2012-11-14,45,35,30,23,20,18,68,55,39,30.15,30.03,13,1,13,0.00
2012-11-15,42,32,27,26,21,19,78,65,43,30.12,29.91,12,1,12,0.00
2012-11-16,42,33,27,29,23,18,87,69,42,30.00,29.88,11,0,11,0.00
2012-11-17,44,34,26,28,20,14,82,59,38,30.27,30.00,12,1,12,0.00
2012-11-18,44,31,23,21,15,11,76,53,31,30.36,30.24,11,0,11,0.00
2012-11-19,48,34,24,27,20,14,76,58,41,30.24,29.97,12,1,12,0.00
2012-11-20,50,40,31,35,23,17,93,52,36,29.83,29.77,8,0,8,0.00
2012-11-21,46,36,31,34,28,20,89,72,57,29.91,29.80,10,0,10,0.00
2012-11-22,52,37,27,42,32,26,97,83,49,29.88,29.74,16,1,16,0.00
2012-11-23,52,41,34,50,40,32,98,96,63,29.74,29.26,12,2,12,0.00
2012-11-24,48,41,30,44,31,11,95,70,41,29.26,29.06,22,3,22,0.00
2012-11-25,36,31,27,14,9,5,51,39,32,29.38,29.12,29,10,29,0.00
2012-11-26,41,28,23,18,8,5,49,42,39,29.85,29.38,22,6,22,0.00
2012-11-27,34,26,19,16,12,7,67,55,42,29.94,29.83,7,0,7,0.00
2012-11-28,33,29,21,17,14,11,79,53,43,29.88,29.71,11,0,11,0.00
2012-11-29,38,30,19,23,14,9,87,56,33,29.80,29.65,20,5,20,0.00
2012-11-30,31,21,14,13,1,-3,49,41,33,30.21,29.77,12,2,12,0.00
2012-12-1,24,20,12,20,8,-4,84,60,45,30.30,30.12,8,0,8,0.00
2012-12-2,51,40,24,50,39,20,98,94,84,30.15,29.59,30,3,30,0.31
2012-12-3,51,42,29,48,36,26,98,80,49,29.94,29.59,24,4,24,0.04
2012-12-4,52,40,27,51,39,25,98,95,88,29.94,29.59,17,2,17,0.00
2012-12-5,55,46,32,54,36,12,98,70,42,29.65,29.41,23,5,23,0.35
2012-12-6,37,30,23,14,11,9,63,46,37,29.94,29.65,17,2,17,0.00
2012-12-7,41,32,20,36,22,11,93,68,51,29.88,29.68,15,3,15,0.04
2012-12-8,41,37,36,40,37,34,98,97,93,29.68,29.50,7,0,7,0.24
2012-12-9,45,37,30,40,29,20,98,76,41,29.94,29.53,12,2,12,0.00
2012-12-10,39,34,32,38,32,24,98,91,70,29.88,29.12,14,1,14,0.35
2012-12-11,40,34,23,39,27,15,98,78,48,29.74,29.15,12,1,12,0.00
2012-12-12,35,25,19,20,15,13,82,66,42,30.00,29.74,12,1,12,0.00
2012-12-13,39,28,19,29,19,16,90,73,42,30.06,29.85,9,0,9,0.00
2012-12-14,43,32,24,28,22,17,89,69,41,29.85,29.62,17,3,17,0.00
2012-12-15,36,24,14,23,5,-3,64,45,35,30.00,29.71,17,2,17,0.00
2012-12-16,23,17,11,10,0,-5,68,47,42,30.00,29.83,10,0,10,0.00
2012-12-17,33,27,19,32,22,10,94,82,68,29.83,29.56,5,0,5,0.00
2012-12-18,44,41,33,43,40,32,98,98,94,29.56,29.06,26,8,26,0.79
2012-12-19,40,36,33,40,35,33,98,98,98,29.62,29.03,18,1,18,0.12
2012-12-20,36,33,31,34,29,24,98,86,66,29.83,29.62,9,0,9,0.00
2012-12-21,51,41,32,51,39,26,98,93,79,29.71,28.79,34,7,34,0.79
2012-12-22,44,35,24,41,27,7,92,74,46,29.12,28.79,26,6,26,0.08
2012-12-23,33,27,22,15,8,4,57,45,39,29.41,29.12,26,6,26,0.00
2012-12-24,33,27,23,17,10,6,63,50,37,29.71,29.38,22,3,22,0.00
2012-12-25,32,25,19,13,10,6,69,54,42,29.83,29.65,9,0,9,0.00
2012-12-26,33,23,15,12,7,2,59,50,41,29.94,29.77,12,1,12,0.00
2012-12-27,34,29,24,33,25,10,98,88,54,29.77,29.12,12,2,12,0.00
2012-12-28,33,27,20,25,18,10,93,69,53,29.59,29.15,0,0,0,0.00
2012-12-29,27,20,10,20,15,6,87,78,65,29.62,29.09,0,0,0,0.00
2012-12-30,27,21,13,21,11,-3,88,67,47,29.38,29.00,0,0,0,0.00
2012-12-31,32,22,12,17,6,-3,81,53,41,29.50,29.29,17,1,17,0.00
2013-1-1,30,22,9,20,6,-11,83,50,33,29.47,29.23,20,6,20,0.00